Location: Newark
(22.3060°N, 114.2134°E)
Time: 04:01:26
(UTC+00:00)

Vanguard 2 - Pass Details

Date: 05 August 2021
Orbit: 552 x 2937 km, 32.9° (Epoch: 21 September)

Event Time Altitude Azimuth Distance (km) Brightness Sun altitude
Rises 15:07:50 0° 204° (SSW) 4,806 - -46.1°
Reaches altitude 10° 15:13:29 10° 181° (S) 3,234 - -46.7°
Maximum altitude 15:16:59 14° 154° (SSE) 2,615 - -47.1°
Drops below altitude 10° 15:19:53 10° 126° (SE) 2,580 - -47.4°
Sets 15:23:25 0° 98° (E) 3,187 - -47.7°
